Epoch 2005 July 9.0 TT = JDT 2453560.5
T 2005 July 27.88961 TT MPC
q 2.3647335 (2000.0) P Q
n 0.17507375 Peri. 325.78172 +0.95399499 -0.29932138
a 3.1646233 Node 51.64463 +0.27978833 +0.86798888
e 0.2527599 Incl. 1.26618 +0.10775919 +0.39623480
P 5.63